Weather History for Portland Hillsboro, OR

Change the Weather History Date:

Thursday, March 27, 2014

  Actual Average Record
Temperature  
Mean Temperature 50 °F 48 °F  
Max Temperature 56 °F 57 °F 78 °F (1994)
Min Temperature 44 °F 38 °F 25 °F (1944)
Degree Days  
Heating Degree Days 15 17  
Month to date heating degree days 479 519  
Since 1 July heating degree days 4175 4046  
Cooling Degree Days 0 0  
Month to date cooling degree days 0 0  
Year to date cooling degree days 0 0  
Moisture  
Dew Point 42 °F    
Average Humidity 74    
Maximum Humidity 93    
Minimum Humidity 55    
Precipitation  
Precipitation 0.18 in 0.12 in 1.20 in (2005)
Month to date precipitation 4.59 3.25  
Year to date precipitation 12.06 13.72  
Snow  
Snow 0.00 in - - ()
Month to date snowfall 0.0  
Since 1 July snowfall 0.0  
Snow Depth 0.00 in    
Sea Level Pressure  
Sea Level Pressure 29.72 in    
Wind  
Wind Speed 10 mph (South)    
Max Wind Speed 20 mph    
Max Gust Speed 26 mph    
Visibility 10 miles    
Events Rain    
T = Trace of Precipitation, MM = Missing Value Source: NWS Daily Summary

Daily Weather History Graph

Daily Weather History Graph

Search for Another Location

Airport:

Trip Planner

Search our weather history database for the weather conditions in past years. The results will help you decide how hot, cold, wet, or windy it might be!

Date:

Astronomy

Mar. 27, 2014 Rise Set
Actual Time 7:01 AM PDT 7:33 PM PDT
Civil Twilight 6:31 AM PDT 8:03 PM PDT
Nautical Twilight 5:56 AM PDT 8:38 PM PDT
Astronomical Twilight 5:19 AM PDT 9:15 PM PDT
Moon 5:05 AM PDT (3/27) 4:19 PM PDT (3/27)
Length of Visible Light 13h 31m
Length of Day
12h 32m
Waning Crescent, 12% of the Moon is Illuminated
Mar 27
Waning Crescent
Mar 30
New
Apr 7
First Quarter
Apr 15
Full
Apr 22
Last Quarter

Hourly Weather History & Observations

Time (PDT) Temp. Windchill Dew Point Humidity Pressure Visibility Wind Dir Wind Speed Gust Speed Precip Events Conditions
12:53 AM 45.0 °F 40.6 °F 42.1 °F 90% 29.59 in 10.0 mi SSE 8.1 mph - 0.01 in Rain Light Rain
1:40 AM 45.0 °F 39.3 °F 41.0 °F 86% 29.59 in 10.0 mi South 11.5 mph - 0.00 in   Overcast
1:53 AM 45.0 °F 40.1 °F 42.1 °F 90% 29.59 in 10.0 mi South 9.2 mph - 0.00 in   Overcast
2:18 AM 45.0 °F 39.3 °F 42.1 °F 90% 29.59 in 10.0 mi SSE 11.5 mph - N/A   Overcast
2:40 AM 45.0 °F 38.9 °F 41.0 °F 86% 29.60 in 10.0 mi South 12.7 mph 21.9 mph 0.00 in Rain Light Rain
2:53 AM 45.0 °F 37.6 °F 41.0 °F 86% 29.60 in 8.0 mi South 17.3 mph - 0.02 in Rain Light Rain
3:38 AM 45.0 °F 38.9 °F 42.1 °F 90% 29.60 in 8.0 mi South 12.7 mph - 0.06 in Rain Light Rain
3:53 AM 45.0 °F 38.9 °F 41.0 °F 86% 29.61 in 10.0 mi South 12.7 mph - 0.07 in   Overcast
4:16 AM 44.1 °F 38.1 °F 41.0 °F 89% 29.60 in 10.0 mi South 11.5 mph - 0.00 in Rain Light Rain
4:40 AM 44.1 °F 39.0 °F 41.0 °F 89% 29.61 in 10.0 mi South 9.2 mph - 0.01 in Rain Light Rain
4:53 AM 44.1 °F 37.7 °F 41.0 °F 89% 29.61 in 10.0 mi South 12.7 mph - 0.02 in Rain Light Rain
5:02 AM 44.1 °F 37.7 °F 41.0 °F 89% 29.61 in 10.0 mi South 12.7 mph - 0.00 in Rain Light Rain
5:31 AM 44.1 °F 37.4 °F 41.0 °F 89% 29.62 in 10.0 mi South 13.8 mph - 0.01 in Rain Light Rain
5:39 AM 44.1 °F 39.0 °F 41.0 °F 89% 29.62 in 10.0 mi South 9.2 mph - 0.01 in Rain Light Rain
5:53 AM 44.1 °F 37.7 °F 41.0 °F 89% 29.63 in 9.0 mi South 12.7 mph - 0.01 in Rain Light Rain
6:03 AM 44.1 °F 38.1 °F 41.0 °F 89% 29.63 in 10.0 mi South 11.5 mph - 0.00 in Rain Light Rain
6:32 AM 44.1 °F 39.0 °F 42.1 °F 93% 29.65 in 10.0 mi SSE 9.2 mph - 0.01 in   Overcast
6:53 AM 44.1 °F 38.1 °F 42.1 °F 93% 29.65 in 10.0 mi South 11.5 mph - 0.01 in   Overcast
7:53 AM 45.0 °F 39.7 °F 42.1 °F 90% 29.68 in 10.0 mi South 10.4 mph - N/A   Overcast
8:53 AM 46.9 °F - 44.1 °F 90% 29.71 in 10.0 mi South 9.2 mph - N/A   Overcast
9:53 AM 48.9 °F - 45.0 °F 86% 29.74 in 10.0 mi South 10.4 mph - N/A   Overcast
10:53 AM 51.1 °F - 45.0 °F 80% 29.77 in 10.0 mi South 11.5 mph - N/A   Overcast
11:53 AM 52.0 °F - 44.1 °F 74% 29.79 in 10.0 mi SSW 12.7 mph 21.9 mph 0.00 in   Overcast
12:53 PM 52.0 °F - 42.1 °F 69% 29.80 in 10.0 mi West 5.8 mph - 0.00 in   Overcast
1:53 PM 53.1 °F - 42.1 °F 66% 29.82 in 10.0 mi WSW 12.7 mph - 0.02 in   Overcast
2:53 PM 54.0 °F - 41.0 °F 62% 29.83 in 10.0 mi SW 15.0 mph 24.2 mph N/A   Mostly Cloudy
3:53 PM 54.0 °F - 39.9 °F 59% 29.85 in 10.0 mi West 11.5 mph - N/A   Overcast
4:53 PM 55.0 °F - 39.9 °F 57% 29.86 in 10.0 mi West 9.2 mph - N/A   Scattered Clouds
5:53 PM 53.1 °F - 39.9 °F 61% 29.87 in 10.0 mi West 12.7 mph - N/A   Overcast
6:53 PM 53.1 °F - 39.9 °F 61% 29.88 in 10.0 mi SW 6.9 mph - 0.00 in   Overcast
7:53 PM 51.1 °F - 41.0 °F 68% 29.89 in 10.0 mi SW 6.9 mph - 0.00 in Rain Light Rain
8:53 PM 51.1 °F - 41.0 °F 68% 29.91 in 10.0 mi SSW 9.2 mph - 0.00 in   Overcast
9:53 PM 50.0 °F - 42.1 °F 74% 29.91 in 10.0 mi South 6.9 mph - N/A   Overcast
10:53 PM 48.9 °F - 43.0 °F 80% 29.91 in 10.0 mi SSE 5.8 mph - N/A   Overcast
11:53 PM 48.9 °F - 43.0 °F 80% 29.91 in 10.0 mi SSE 10.4 mph - 0.00 in Rain Light Rain